Regional Weather Roundup
Issued by NWS

Home | Current Version | Previous Version | Graphics & Text | Print | Product List | Glossary On
Versions: 1 2 3 4 5 6 7 8 9 10 11 12 13 14 15 16 17 18 19 20 21 22 23 24 25 26 27 28 29 30 31 32 33 34 35 36 37 38 39 40 41 42 43 44 45 46 47 48 49 50
000
ASUS45 KSLC 250710
RWRUT

UTAH REGIONAL WEATHER ROUNDUP
NATIONAL WEATHER SERVICE SALT LAKE CITY UT
100 AM MDT MON MAY 25 2015

UTZ001>011-023>025-250800-

NORTHERN UTAH

CITY           SKY/WX    TMP DP  RH WIND       PRES   REMARKS
BRIGHAM CITY   MOCLDY    53  48  83 CALM      29.92S
HILL AFB       PTCLDY    50  46  86 SE7       29.93S
LOGAN          CLOUDY    53  48  83 N7        29.92R
OGDEN          PTCLDY    49  47  93 S7        29.92S
PROVO AIRPORT  CLOUDY    54  43  66 N13       29.95S
SALT LAKE CITY MOCLDY    53  48  83 S10       29.92F
VERNAL         LGT RAIN  47  44  90 CALM      29.96S
WENDOVER       CLOUDY    57  45  62 CALM      29.92S
HEBER CITY     CLOUDY    46  41  81 SW5       29.96F
WEST JORDAN    CLOUDY    50  48  93 S9        29.94F

$$

UTZ012>022-026-027-250800-

SOUTHERN/CENTRAL UTAH

CITY           SKY/WX    TMP DP  RH WIND       PRES   REMARKS
BLANDING       PTCLDY    46  43  89 NE5       30.03S
BRYCE CANYON   MOCLDY    43  38  82 W13       30.04S
CEDAR CITY     CLOUDY    50  45  83 S6        30.00F
DELTA          PTCLDY    49  45  84 SE3       29.96R
HANKSVILLE     MOCLDY    55  48  76 CALM      29.90S
MILFORD        MOCLDY    50  47  89 SW7       29.97S
MOAB/CYNLANDS  MOCLDY    55  42  61 E8        29.89S
PRICE          MOCLDY    52  36  54 NW7       29.94R
ST GEORGE      CLOUDY    63  46  55 NW13      29.97R
KANAB          CLOUDY    46  46 100 CALM      30.02F

$$

REGIONAL REPORTS     COLORADO/ARIZONA

CITY           SKY/WX    TMP DP  RH WIND       PRES   REMARKS
CRAIG, CO      CLOUDY    43  40  89 CALM      29.97S
GRAND JUNCTION RAIN      47  46  97 CALM      29.96R FOG
RIFLE          CLOUDY    45  40  82 E6        29.97S
MONTROSE       CLOUDY    47  44  90 CALM      29.97S
CORTEZ         MOCLDY    44  41  89 NE3       29.98S
PAGE, AZ       CLOUDY    59  48  67 NW3       29.93S
GRAND CANYON   CLOUDY    46  43  89 CALM      30.06S
KINGMAN        MOCLDY    58  50  75 VRB3      29.94S
FLAGSTAFF      MOCLDY    47  38  71 W6        30.08S

$$

REGIONAL REPORTS    NEVADA/IDAHO/WYOMING

CITY           SKY/WX    TMP DP  RH WIND       PRES   REMARKS
LAS VEGAS, NV  LGT RAIN  66  54  65 SE7G18    29.88F
ELY            CLEAR     40  39  97 SW7       30.04S
ELKO           CLEAR     47  43  86 CALM      29.98F
POCATELLO, ID  PTCLDY    52  47  83 SW10      29.92F
BURLEY         CLEAR     46  44  93 W3        29.91S
EVANSTON, WY   LGT RAIN  43  41  93 SW6       29.99S
ROCK SPRINGS   CLOUDY    42  39  89 E6        29.98S
KEMMERER       CLOUDY    41  37  87 CALM      30.00F

$$


USA.gov is the U.S. government's official web portal to all federal, state and local government web resources and services.